Regional Weather Roundup
Issued by NWS

Home | Current Version | Previous Version | Text Only | Print | Product List | Glossary Off
Versions: 1 2 3 4 5 6 7 8 9 10 11 12 13 14 15 16 17 18 19 20 21 22 23 24 25 26 27 28 29 30 31 32 33 34 35 36 37 38 39 40 41 42 43 44 45 46 47 48 49 50

000
ASUS44 KMEG 021100
RWRTN
TENNESSEE HOURLY STATE WEATHER ROUNDUP
NATIONAL WEATHER SERVICE MEMPHIS TN
600 AM CDT SUN AUG 02 2015

TNZ002-004-019-021-049-052-054-088>092-021200-
WEST TENNESSEE

CITY           SKY/WX    TMP DP  RH WIND       PRES   REMARKS
MEMPHIS INTL   CLEAR     78  67  68 CALM      29.96R
NWS MEMPHIS      N/A     69 N/A N/A MISG        N/A
JACKSON        CLEAR     68  66  93 CALM      29.97R FOG
DYERSBURG        N/A    N/A N/A N/A MISG        N/A
PARIS          CLEAR     66  63  88 CALM      29.99R
LEXINGTON      CLEAR     66  66 100 CALM      29.97S
$$

TNZ008-025-027-028-033-062-065-066-021200-
NORTH MIDDLE TENNESSEE

CITY           SKY/WX    TMP DP  RH WIND       PRES   REMARKS
NASHVILLE      PTCLDY    64  63  96 CALM      29.99R
CLARKSVILLE    CLEAR     61  60  97 CALM      29.99R FOG
CROSSVILLE     CLEAR     60  56  86 CALM      30.04R
$$

TNZ061-075-076-078-094-096-097-021200-
SOUTH MIDDLE TENNESSEE

CITY           SKY/WX    TMP DP  RH WIND       PRES   REMARKS
FAYETTEVILLE   CLEAR     64  63  94 NE8       29.99R
TULLAHOMA      CLEAR     61  57  88 CALM      30.01R
WINCHESTER     PTCLDY    61  59  94 CALM      30.00R
MCMINNVILLE    CLEAR     61  61 100 CALM      30.01R
COLUMBIA       CLOUDY    66  66 100 CALM      29.98R VSB 1/4
SHELBYVILLE      N/A     61  61 100 CALM      30.00R VSB 3/4
$$

TNZ017-018-042-046-047-021200-
NORTHEAST TENNESSEE

CITY           SKY/WX    TMP DP  RH WIND       PRES   REMARKS
TRI CITIES     PTCLDY    59  58  96 CALM      30.04R
ELIZABETHTON   SUNNY     59  55  88 CALM      30.05R
$$

TNZ012-013-036-069-073-074-021200-
CENTRAL EAST TENNESSEE

CITY           SKY/WX    TMP DP  RH WIND       PRES   REMARKS
KNOXVILLE      PTCLDY    65  63  93 E3        29.98S
OAK RIDGE      CLEAR     64  61  90 CALM      30.01R
GATLINBURG     SUNNY     61  59  94 CALM      30.00S
$$

TNZ083-085-099-021200-
SOUTHEAST TENNESSEE

CITY           SKY/WX    TMP DP  RH WIND       PRES   REMARKS
CHATTANOOGA    MOCLDY    68  64  87 CALM      29.98R
$$

SKY/WX REPORTED AS FAIR MEANS FEW OR NO CLOUDS BELOW
12 THOUSAND FEET.




USA.gov is the U.S. government's official web portal to all federal, state and local government web resources and services.